ATLAS 5 CENTAUR DEB, 44667

Orbit data source: Space-Track

ATLAS 5 CENTAUR DEB, 44667 is space debris in HEO originally from a launch on Wed, 17 Oct 2018 UTC launched from the Air Force Eastern Test Range (AFETR). Debris objects in space refer to the collection of defunct objects orbiting the Earth. Examples of debris include non-operational satellites, rocket bodies, and fragments generated from explosions, collisions, or faulty payload assembly.

Loading next visibility...
Identifier
44667, 2018-079AD
Orbit
HEO
Last TLE update
5 days ago
Origin
Manufacturer
ULA Decatur
Mission
Spacecraft
Bus & Motor
Unknown
Mass
Unknown
Launch date (UTC)
2018-10-17 (7 years ago)
Launch vehicle
Unknown
Launch site
Air Force Eastern Test Range (AFETR)
Object type
Payload
Rocket body
Debris
Shape & HBR
Unknown
Radar Cross Section
RCS unknown

Expand to show TLE details & history

TLE from 5 days ago
0 ATLAS 5 CENTAUR DEB
1 44667U 18079AD  25110.70976331 -.00000090  00000-0  00000-0 0  9997
2 44667  13.0399  53.7567 4671241 282.8306  30.5466  1.90835578 10103
Epoch: 2025-04-20T17:02Z
Definitive object data (Epoch: 2025-04-20T17:02:03.549Z)
Latitude
-0.00003°
Longitude
-50.83506°
Altitude
13,057.695 km
Speed
5.148 km/s
True Right ascension
03h 34m 51s
True Declination
0° 00' 00"
Sunlit
Object was in daylight at TLE epoch
Visualization TLE readout
Latitude
9.73584°
Longitude
80.93449°
Altitude
30,251.926 km
Speed
2.692 km/s
Apparent Right ascension
12h 25m 47s
Apparent Declination
2° 57' 29"
Sunlit
Object is in daylight
Visualization observer readout
Local Sidereal Time
00:54:19
Azimuth
10.405° NNE
Elevation
-46.629°
Doppler factor
1
Orbital elements
Apogee altitude
33,905.62 km
Perigee altitude
8,253.375 km
Semi-major axis
27,457.634 km
Eccentricity
0.4671241
Inclination
13.0399°
RAAN
53.7567°
Arg. of periapsis
282.8306°
True anomaly
77.33041°
Mean anomaly
30.5466°
Eccentric anomaly
51.48944°
Mean motion
0.47703 °/min
BSTAR
Unknown
Orbital period
754.66 mins
Loading maneuver chart data...
Loading SW <> Apogee altitude chart data...

ATLAS 5 CENTAUR DEB Visibility forecast

Observer location: undefined°, undefined°

Span
Click to sort rows by Start time (UTC) header in descending order
Start Az.
Max El. time (UTC)
Max El. Az.
Max El.
End time (UTC)
End Az.
666 mins2025-04-25 22:34:51.169Z235.767° WSW2025-04-26 02:37:51.169Z197.702° SSW39.983°2025-04-26 09:40:51.169Z144.035° SSE
|